Weather History for Deering, AK

Change the Weather History Date:

Wednesday, March 5, 2014

  Actual Average (PAOT) Record (PAOT)
Temperature  
Mean Temperature -4 °F -  
Max Temperature 7 °F - 30 °F (2000)
Min Temperature -15 °F -7 °F -46 °F (1929)
Degree Days  
Heating Degree Days 69 65  
Month to date heating degree days 325  
Since 1 July heating degree days 10567  
Cooling Degree Days 0    
Month to date cooling degree days  
Year to date cooling degree days  
Moisture  
Dew Point -13 °F    
Average Humidity 72    
Maximum Humidity 83    
Minimum Humidity 61    
Precipitation  
Precipitation 0.00 in 0.01 in 0.64 in (2009)
Month to date precipitation 0.09  
Year to date precipitation 1.37  
Snow  
Snow 0.00 in 0.20 in 6.40 in (2009)
Month to date snowfall 1.3  
Since 1 July snowfall 48.9  
Snow Depth -    
Sea Level Pressure  
Sea Level Pressure 30.17 in    
Wind  
Wind Speed 7 mph (SW)    
Max Wind Speed 13 mph    
Max Gust Speed -    
Visibility 10 miles    
Events      
T = Trace of Precipitation, MM = Missing Value Source: NWS Daily Summary

Daily Weather History Graph

Daily Weather History Graph

Search for Another Location

Airport:

Trip Planner

Search our weather history database for the weather conditions in past years. The results will help you decide how hot, cold, wet, or windy it might be!

Date:

Astronomy

Mar. 05, 2014 Rise Set
Actual Time 8:47 AM AKST 7:18 PM AKST
Civil Twilight 7:56 AM AKST 8:10 PM AKST
Nautical Twilight 6:56 AM AKST 9:10 PM AKST
Astronomical Twilight 5:53 AM AKST 10:13 PM AKST
Moon 9:16 AM AKST (3/5) 1:35 AM AKST (3/5)
Length of Visible Light 12h 13m
Length of Day
10h 31m
Waxing Crescent, 24% of the Moon is Illuminated
Mar 5
Waxing Crescent
Mar 8
First Quarter
Mar 16
Full
Mar 23
Last Quarter
Mar 30
New

Hourly Weather History & Observations

Time (AKST) Temp. Windchill Dew Point Humidity Pressure Visibility Wind Dir Wind Speed Gust Speed Precip Events Conditions
12:53 AM -11.0 °F -22.8 °F -17.0 °F 75% 30.17 in 10.0 mi SSW 4.6 mph - N/A   Clear
1:53 AM -13.0 °F -28.6 °F -18.9 °F 75% 30.17 in 10.0 mi South 6.9 mph - N/A   Clear
2:53 AM -11.9 °F -28.7 °F -18.9 °F 71% 30.18 in 10.0 mi SSW 8.1 mph - N/A   Clear
3:53 AM -13.0 °F -31.3 °F -20.0 °F 71% 30.18 in 10.0 mi SSW 9.2 mph - N/A   Clear
4:53 AM -14.1 °F -23.9 °F -20.9 °F 71% 30.19 in 10.0 mi WSW 3.5 mph - N/A   Clear
5:53 AM -15.0 °F -36.8 °F -20.9 °F 75% 30.18 in 10.0 mi SSW 12.7 mph - N/A   Clear
6:53 AM -14.1 °F -32.6 °F -20.0 °F 75% 30.19 in 10.0 mi SSW 9.2 mph - N/A   Clear
7:53 AM -13.0 °F -32.4 °F -18.9 °F 75% 30.19 in 10.0 mi SSW 10.4 mph - N/A   Clear
8:53 AM -14.1 °F -32.6 °F -20.9 °F 71% 30.19 in 10.0 mi SSW 9.2 mph - N/A   Clear
9:53 AM -14.1 °F -32.6 °F -20.9 °F 71% 30.18 in 10.0 mi SSW 9.2 mph - N/A   Clear
10:53 AM -8.0 °F -25.0 °F -15.0 °F 71% 30.17 in 10.0 mi SSW 9.2 mph - N/A   Clear
11:53 AM -4.0 °F -16.3 °F -11.0 °F 72% 30.17 in 10.0 mi SSW 5.8 mph - N/A   Clear
12:53 PM -0.0 °F -18.0 °F -8.0 °F 69% 30.16 in 10.0 mi West 12.7 mph - N/A   Clear
1:53 PM 1.0 °F -11.7 °F -7.1 °F 69% 30.15 in 10.0 mi WNW 6.9 mph - N/A   Clear
2:53 PM 5.0 °F -4.1 °F -5.1 °F 63% 30.14 in 10.0 mi North 4.6 mph - N/A   Clear
3:53 PM 7.0 °F 0.1 °F -4.0 °F 61% 30.14 in 10.0 mi NNW 3.5 mph - N/A   Clear
4:53 PM 7.0 °F -4.5 °F -2.9 °F 64% 30.14 in 10.0 mi North 6.9 mph - N/A   Clear
5:53 PM 5.0 °F -8.1 °F -4.0 °F 66% 30.13 in 10.0 mi North 8.1 mph - N/A   Clear
6:53 PM 3.0 °F - -5.1 °F 69% 30.14 in 10.0 mi Calm Calm - N/A   Clear
7:53 PM -0.0 °F - -7.1 °F 72% 30.15 in 10.0 mi Calm Calm - N/A   Clear
8:53 PM -6.0 °F -16.9 °F -11.0 °F 79% 30.16 in 10.0 mi South 4.6 mph - N/A   Clear
9:53 PM -9.0 °F -25.2 °F -13.0 °F 83% 30.17 in 10.0 mi SSW 8.1 mph - N/A   Clear
10:53 PM -9.9 °F -26.3 °F -16.1 °F 74% 30.18 in 10.0 mi SW 8.1 mph - N/A   Clear
11:53 PM -13.0 °F -32.4 °F -17.0 °F 82% 30.19 in 10.0 mi SSW 10.4 mph - N/A   Clear